Content
SEND FEEDBACK

Daily
Averages
Monthly
Summary
India

CHENNAI, INDIA


Home > Asia > India
Elevation: 52 feet     Latitude: 13 00N     Longitude: 080 11E

WEATHER
 
SELECT A DAY
Number of Records: 202,504;   Date Range: 7/1/96 - 7/11/14
 
SHARE

PRINT THIS DATA

[ ← Previous Day ]
WEATHER ALMANAC - APRIL 24, 2013
[ Next Day → ]
[ °C ]   °F
Weather ElementAverageHighLow
Temperature86 °F95 °F (3:10 pm)78.8 °F (8:40 am)
Dewpoint76.6 °F80 °F (5:30 am)71.6 °F (1:40 pm)
Humidity73.3 %91 % (5:30 am)48 % (2:30 pm)
Barometer29.83 in29.93 in (8:30 am)29.74 in (3:40 pm)
Wind Speed6.3 mph15 mph (4:40 pm)
Weather ElementAverage
Visibility3.5 mi
Wind DirectionSSE (143.8 °)

Weather ElementTotal
Precipitation---
Cooling Degree Days21.9 (Base 65)
Growing Degree Days36.9 (Base 50)
Averaged from 54 records on April 24, 2013
WEATHER CONDITIONS BREAKOUT
WIND DIRECTION BREAKOUT
WEATHER BY HOUR - APRIL 24, 2013
[ °C ]   °F
Local TimeTemperatureDewpointHumidityBarometerVisibilityWind DirectionWind SpeedGust SpeedPrecipitationEventsConditions
12:40 AM84.2 °F77.0 °F79 %29.83 in3.7 miESE (120°)4.6 mphScattered Clouds
1:10 AM84.2 °F77.0 °F79 %29.83 in3.7 miSE (130°)6.9 mphScattered Clouds
1:40 AM84.2 °F77.0 °F79 %29.83 in3.7 miSSE (150°)4.6 mphScattered Clouds
2:10 AM84.2 °F77.0 °F79 %29.80 in3.7 miSSE (160°)4.6 mphScattered Clouds
2:30 AM84.0 °F79.0 °F80 %29.83 in2.0 miCalmScattered Clouds
2:40 AM84.2 °F77.0 °F79 %29.80 in3.7 miSouth (180°)4.6 mphScattered Clouds
3:10 AM84.2 °F78.8 °F84 %29.80 in3.7 miSSW (200°)5.8 mphScattered Clouds
3:40 AM82.4 °F77.0 °F84 %29.80 in3.7 miCalmScattered Clouds
4:10 AM82.4 °F77.0 °F84 %29.80 in3.7 miCalmPartly Cloudy
4:40 AM82.4 °F77.0 °F84 %29.80 in3.7 miCalmPartly Cloudy
5:10 AM80.6 °F77.0 °F89 %29.83 in3.7 miCalmPartly Cloudy
5:30 AM82.0 °F80.0 °F91 %29.85 in2.0 miCalmScattered Clouds
5:40 AM80.6 °F77.0 °F89 %29.83 in3.7 miWNW (290°)3.5 mphPartly Cloudy
6:40 AM82.4 °F78.8 °F89 %29.86 in2.5 miWest (270°)3.5 mphHaze
7:10 AM84.2 °F78.8 °F84 %29.86 in2.5 miWest (260°)3.5 mphHaze
7:40 AM84.2 °F77.0 °F79 %29.89 in2.5 miWSW (240°)5.8 mphHaze
8:10 AM84.2 °F77.0 °F79 %29.89 in2.5 miSW (230°)6.9 mphHaze
8:30 AM85.0 °F78.0 °F73 %29.93 in2.0 miWest (270°)5.8 mphThunderstormThunderstorm
8:40 AM78.8 °F75.2 °F89 %29.92 in1.9 miWSW (250°)11.5 mphRain-ThunderstormThunderstorms and Rain
9:10 AM80.6 °F77.0 °F89 %29.92 in1.9 miWSW (240°)6.9 mphRain-ThunderstormThunderstorms and Rain
9:40 AM84.2 °F77.0 °F79 %29.92 in2.5 miSSW (210°)5.8 mphRain-ThunderstormLight Thunderstorms and Rain
10:10 AM84.2 °F77.0 °F79 %29.92 in2.5 miVariable3.5 mphRain-ThunderstormLight Thunderstorms and Rain
10:40 AM86.0 °F77.0 °F74 %29.92 in2.5 miSSE (150°)4.6 mphRain-ThunderstormLight Thunderstorms and Rain
11:10 AM84.2 °F77.0 °F79 %29.89 in2.5 miSouth (180°)8.1 mphRain-ThunderstormLight Thunderstorms and Rain
11:30 AM87.0 °F76.0 °F63 %29.91 in6.0 miSouth (180°)2.3 mphPartly Cloudy
11:40 AM86.0 °F75.2 °F70 %29.89 in3.1 miSouth (180°)4.6 mphHaze
12:10 PM87.8 °F75.2 °F66 %29.86 in3.7 miSSE (160°)5.8 mphMostly Cloudy
12:40 PM89.6 °F75.2 °F62 %29.83 in3.7 miSSE (150°)8.1 mphMostly Cloudy
1:10 PM91.4 °F73.4 °F55 %29.83 in3.7 miSE (130°)9.2 mphMostly Cloudy
1:40 PM93.2 °F71.6 °F49 %29.80 in3.7 miSE (140°)6.9 mphMostly Cloudy
2:10 PM93.2 °F73.4 °F52 %29.80 in3.7 miSE (130°)9.2 mphMostly Cloudy
2:30 PM92.0 °F74.0 °F48 %29.81 in6.0 miEast (90°)5.8 mphScattered Clouds
2:40 PM91.4 °F73.4 °F55 %29.77 in4.3 miSSE (150°)9.2 mphMostly Cloudy
3:10 PM95.0 °F73.4 °F49 %29.77 in4.3 miESE (120°)11.5 mphMostly Cloudy
3:40 PM91.4 °F73.4 °F55 %29.74 in4.3 miESE (120°)11.5 mphScattered Clouds
4:10 PM91.4 °F73.4 °F55 %29.74 in4.3 miESE (120°)12.7 mphScattered Clouds
4:40 PM89.6 °F75.2 °F62 %29.74 in4.3 miESE (110°)15.0 mphScattered Clouds
5:10 PM89.6 °F75.2 °F62 %29.74 in4.3 miSE (130°)10.4 mphPartly Cloudy
5:30 PM89.0 °F77.0 °F60 %29.79 in6.0 miSSE (160°)6.9 mphClear
5:40 PM87.8 °F75.2 °F66 %29.77 in3.7 miESE (120°)11.5 mphPartly Cloudy
6:10 PM86.0 °F77.0 °F74 %29.77 in3.7 miESE (120°)10.4 mphScattered Clouds
6:40 PM86.0 °F77.0 °F74 %29.80 in3.7 miESE (120°)9.2 mphScattered Clouds
7:10 PM86.0 °F77.0 °F74 %29.80 in3.7 miESE (120°)5.8 mphPartly Cloudy
7:40 PM86.0 °F77.0 °F74 %29.83 in3.7 miSE (130°)8.1 mphPartly Cloudy
8:10 PM86.0 °F78.8 °F79 %29.83 in3.7 miESE (120°)6.9 mphPartly Cloudy
8:30 PM86.0 °F80.0 °F76 %29.86 in2.0 miESE (110°)5.8 mphScattered Clouds
8:40 PM86.0 °F78.8 °F79 %29.83 in3.7 miESE (110°)8.1 mphPartly Cloudy
9:10 PM86.0 °F77.0 °F74 %29.83 in3.7 miESE (120°)6.9 mphPartly Cloudy
9:40 PM86.0 °F77.0 °F74 %29.86 in3.7 miESE (110°)8.1 mphPartly Cloudy
10:10 PM86.0 °F77.0 °F74 %29.86 in3.7 miSE (130°)6.9 mphPartly Cloudy
10:40 PM86.0 °F77.0 °F74 %29.86 in3.7 miSE (140°)5.8 mphPartly Cloudy
11:10 PM86.0 °F77.0 °F74 %29.83 in3.7 miSE (140°)6.9 mphScattered Clouds
11:30 PM85.0 °F79.0 °F79 %29.87 in2.0 miSSE (160°)4.6 mphScattered Clouds
11:40 PM84.2 °F77.0 °F79 %29.83 in3.7 miSE (130°)6.9 mphPartly Cloudy
Hourly data recorded from VOMM, located miles away from Chennai, India







STORIES FROM OUR PARTNERS